Regional Weather Roundup
Issued by NWS

Home | Current Version | Previous Version | Graphics & Text | Print | Product List | Glossary On
Versions: 1 2 3 4 5 6 7 8 9 10 11 12 13 14 15 16 17 18 19 20 21 22 23 24 25 26 27
000
ASUS45 KBOI 182210
RWRID
WEATHER ROUNDUP FOR IDAHO
NATIONAL WEATHER SERVICE BOISE ID
400 PM MDT FRI APR 18 2014

NOTE: "FAIR" INDICATES FEW OR NO CLOUDS BELOW 12000 FEET
WITH NO SIGNIFICANT WEATHER AND/OR OBSTRUCTIONS TO VISIBILITY

IDZ012-014-182300-
SOUTHWEST IDAHO


CITY           SKY/WX    TMP DP  RH WIND       PRES   REMARKS
BOISE          SUNNY     61  24  24 W15       29.98F
CALDWELL       SUNNY     63  25  23 N9        30.01F
MOUNTAIN HOME  SUNNY     63  24  23 NW12G26   29.97S
$$

IDZ016-017-182300-
SOUTHCENTRAL IDAHO


CITY           SKY/WX    TMP DP  RH WIND       PRES   REMARKS
BURLEY         SUNNY     58  32  37 W15G24    29.96F
JEROME         SUNNY     60  26  27 W17G26    29.98F
TWIN FALLS     SUNNY     61  27  27 W18G26    29.97F
$$

IDZ019>023-182300-
SOUTHEAST IDAHO


CITY           SKY/WX    TMP DP  RH WIND       PRES   REMARKS
IDAHO FALLS    MOSUNNY   59  28  30 SW36G46   29.88F
POCATELLO      MOSUNNY   58  30  34 SW24G31   29.97F
REXBURG        MOSUNNY   56  34  43 S25G45    29.86F
$$

IDZ006-010-011-018-031-032-182300-
CENTRAL IDAHO MOUNTAINS


CITY           SKY/WX    TMP DP  RH WIND       PRES   REMARKS
MCCALL         MOSUNNY   49   9  19 SW15      29.98S
HAILEY         MOSUNNY   57  10  15 NW14G25   29.92F
STANLEY          N/A     43  16  33 N13G21    29.98S
SALMON         MOSUNNY   54  27  35 NW18G33   29.85S
CHALLIS        SUNNY     55   7  14 SW10G28   29.90S
$$

IDZ002-004-006-007-026-182300-
NORTHERN IDAHO


CITY           SKY/WX    TMP DP  RH WIND       PRES   REMARKS
LEWISTON       SUNNY     59  18  20 NW16G26   30.00R
LOWELL           N/A     61  20  20 VRB6G28   29.98F
COEUR D`ALENE  PTSUNNY   50  30  46 SW18G29   29.97S
MULLAN PASS    FRZ RAIN  28  24  85 W12G23    29.90R WCI  18
$$



USA.gov is the U.S. government's official web portal to all federal, state and local government web resources and services.